• în România
  • Lista ţărilor
  • Pe 7 zile
  • Temperatura apei
  • Hartă satelitară
  • Meteo pe hartă
  • Widget-uri
  • user-avatar
    Intrare

    Meteo pe oră la Cyganok

    Astăzi, 15 Noiembrie, Joi

    Timp Temperatura Precipitaţii Vânt Presiune Umiditate
    00:00 -7°C° 0 mm 4 m/s 761 mmHg 41%
    01:00 -7°C° 0 mm 4 m/s 761 mmHg 39%
    02:00 -7°C° 0 mm 4 m/s 761 mmHg 36%
    03:00 -7°C° 0 mm 3 m/s 761 mmHg 34%
    04:00 -7°C° 0 mm 3 m/s 761 mmHg 33%
    05:00 -7°C° 0 mm 3 m/s 761 mmHg 32%
    06:00 -7°C° 0 mm 3 m/s 761 mmHg 31%
    07:00 -7°C° 0 mm 3 m/s 761 mmHg 31%
    08:00 -7°C° 0 mm 3 m/s 762 mmHg 31%
    09:00 -6°C° 0 mm 3 m/s 762 mmHg 31%
    10:00 -5°C° 0 mm 3 m/s 762 mmHg 30%
    11:00 -4°C° 0 mm 3 m/s 762 mmHg 30%
    12:00 -2°C° 0 mm 3 m/s 763 mmHg 29%
    13:00 -2°C° 0 mm 3 m/s 763 mmHg 28%
    14:00 -2°C° 0 mm 3 m/s 763 mmHg 28%
    15:00 -1°C° 0 mm 3 m/s 763 mmHg 28%
    16:00 -2°C° 0 mm 3 m/s 763 mmHg 29%
    17:00 -4°C° 0 mm 3 m/s 763 mmHg 30%
    18:00 -5°C° 0 mm 3 m/s 763 mmHg 31%
    19:00 -5°C° 0 mm 3 m/s 764 mmHg 31%
    20:00 -5°C° 0 mm 3 m/s 764 mmHg 31%
    21:00 -5°C° 0 mm 3 m/s 764 mmHg 31%
    22:00 -6°C° 0 mm 3 m/s 764 mmHg 31%
    23:00 -6°C° 0 mm 3 m/s 765 mmHg 32%

    Mâine, 16 Noiembrie, Vineri

    Timp Temperatura Precipitaţii Vânt Presiune Umiditate
    00:00 -6°C° 0 mm 3 m/s 765 mmHg 32%
    01:00 -6°C° 0 mm 3 m/s 765 mmHg 32%
    02:00 -6°C° 0 mm 3 m/s 765 mmHg 32%
    03:00 -7°C° 0 mm 3 m/s 765 mmHg 32%
    04:00 -7°C° 0 mm 3 m/s 765 mmHg 32%
    05:00 -7°C° 0 mm 3 m/s 765 mmHg 31%
    06:00 -7°C° 0 mm 3 m/s 766 mmHg 31%
    07:00 -7°C° 0 mm 3 m/s 766 mmHg 29%
    08:00 -6°C° 0 mm 3 m/s 766 mmHg 27%
    09:00 -6°C° 0 mm 3 m/s 767 mmHg 25%
    10:00 -5°C° 0 mm 3 m/s 767 mmHg 23%
    11:00 -2°C° 0 mm 3 m/s 767 mmHg 21%
    12:00 -1°C° 0 mm 3 m/s 767 mmHg 18%
    13:00 -1°C° 0 mm 3 m/s 766 mmHg 19%
    14:00 -1°C° 0 mm 3 m/s 766 mmHg 20%
    15:00 -1°C° 0 mm 3 m/s 766 mmHg 21%
    16:00 -2°C° 0 mm 3 m/s 766 mmHg 23%
    17:00 -4°C° 0 mm 3 m/s 766 mmHg 25%
    18:00 -5°C° 0 mm 3 m/s 766 mmHg 27%
    19:00 -5°C° 0 mm 3 m/s 766 mmHg 27%
    20:00 -5°C° 0 mm 3 m/s 766 mmHg 27%
    21:00 -5°C° 0 mm 3 m/s 766 mmHg 27%
    22:00 -5°C° 0 mm 3 m/s 766 mmHg 27%
    23:00 -6°C° 0 mm 3 m/s 766 mmHg 27%

    Poimâine, 17 Noiembrie, Sâmbătă

    Timp Temperatura Precipitaţii Vânt Presiune Umiditate
    00:00 -6°C° 0 mm 3 m/s 766 mmHg 27%
    01:00 -5°C° 0 mm 2 m/s 766 mmHg 27%
    02:00 -5°C° 0 mm 2 m/s 766 mmHg 27%
    03:00 -5°C° 0 mm 2 m/s 765 mmHg 27%
    04:00 -5°C° 0 mm 2 m/s 765 mmHg 27%
    05:00 -5°C° 0 mm 2 m/s 765 mmHg 26%
    06:00 -5°C° 0 mm 2 m/s 764 mmHg 26%
    07:00 -5°C° 0 mm 2 m/s 764 mmHg 26%
    08:00 -5°C° 0 mm 2 m/s 764 mmHg 25%
    09:00 -5°C° 0 mm 2 m/s 764 mmHg 24%
    10:00 -3°C° 0 mm 2 m/s 764 mmHg 22%
    11:00 0°C° 0 mm 1 m/s 763 mmHg 20%
    12:00 +1°C° 0 mm 1 m/s 763 mmHg 18%
    13:00 +1°C° 0 mm 1 m/s 762 mmHg 20%
    14:00 +1°C° 0 mm 1 m/s 762 mmHg 21%
    15:00 +1°C° 0 mm 1 m/s 761 mmHg 22%
    16:00 0°C° 0 mm 1 m/s 760 mmHg 23%
    17:00 -1°C° 0 mm 1 m/s 760 mmHg 24%
    18:00 -1°C° 0 mm 1 m/s 759 mmHg 25%
    19:00 -2°C° 0 mm 1 m/s 759 mmHg 25%
    20:00 -3°C° 0 mm 0 m/s 758 mmHg 25%
    21:00 -3°C° 0 mm 0 m/s 758 mmHg 25%
    22:00 -2°C° 0 mm 1 m/s 757 mmHg 25%
    23:00 -2°C° 0 mm 1 m/s 756 mmHg 26%

    18 Noiembrie, Duminică

    Timp Temperatura Precipitaţii Vânt Presiune Umiditate
    00:00 -3°C° 0 mm 1 m/s 756 mmHg 26%
    01:00 -3°C° 0 mm 1 m/s 755 mmHg 27%
    02:00 -3°C° 0 mm 1 m/s 755 mmHg 28%
    03:00 -3°C° 0 mm 1 m/s 754 mmHg 29%
    04:00 -3°C° 0 mm 1 m/s 754 mmHg 29%
    05:00 -4°C° 0 mm 1 m/s 753 mmHg 30%
    06:00 -4°C° 0 mm 1 m/s 753 mmHg 31%
    07:00 -6°C° 0 mm 2 m/s 752 mmHg 31%
    08:00 -5°C° 0 mm 2 m/s 752 mmHg 31%
    09:00 -5°C° 0 mm 2 m/s 752 mmHg 31%
    10:00 -4°C° 0 mm 2 m/s 752 mmHg 30%
    11:00 -3°C° 0 mm 2 m/s 751 mmHg 29%
    12:00 -2°C° 0 mm 2 m/s 751 mmHg 28%
    13:00 -2°C° 0 mm 2 m/s 751 mmHg 30%
    14:00 -2°C° 0 mm 2 m/s 751 mmHg 32%
    15:00 -2°C° 0 mm 2 m/s 751 mmHg 33%
    16:00 -2°C° 0 mm 2 m/s 751 mmHg 38%
    17:00 -3°C° 0 mm 2 m/s 751 mmHg 43%
    18:00 -3°C° 0 mm 2 m/s 751 mmHg 48%
    19:00 -3°C° 0 mm 2 m/s 751 mmHg 52%
    20:00 -4°C° 0 mm 2 m/s 751 mmHg 57%
    21:00 -4°C° 0 mm 2 m/s 751 mmHg 62%
    22:00 -4°C° 0 mm 2 m/s 751 mmHg 64%
    23:00 -2°C° 0 mm 1 m/s 752 mmHg 67%

    19 Noiembrie, Luni

    Timp Temperatura Precipitaţii Vânt Presiune Umiditate
    00:00 -2°C° 0 mm 1 m/s 752 mmHg 70%
    01:00 -2°C° 0 mm 1 m/s 752 mmHg 73%
    02:00 -2°C° 0 mm 1 m/s 752 mmHg 75%
    03:00 -4°C° 0 mm 2 m/s 753 mmHg 77%
    04:00 -4°C° 0 mm 2 m/s 753 mmHg 80%
    05:00 -4°C° 0 mm 2 m/s 753 mmHg 83%
    06:00 -3°C° 0 mm 1 m/s 753 mmHg 86%
    07:00 -4°C° 0 mm 2 m/s 754 mmHg 87%
    08:00 -4°C° 0 mm 2 m/s 754 mmHg 88%
    09:00 -4°C° 0 mm 2 m/s 755 mmHg 89%
    10:00 -3°C° 0 mm 2 m/s 755 mmHg 86%
    11:00 -2°C° 0 mm 2 m/s 755 mmHg 82%
    12:00 -2°C° 0 mm 2 m/s 756 mmHg 79%
    13:00 -1°C° 0 mm 2 m/s 756 mmHg 80%
    14:00 -1°C° 0 mm 2 m/s 756 mmHg 80%
    15:00 -1°C° 0 mm 2 m/s 756 mmHg 80%
    16:00 -2°C° 0 mm 2 m/s 756 mmHg 83%
    17:00 -2°C° 0 mm 2 m/s 757 mmHg 85%
    18:00 -2°C° 0 mm 2 m/s 757 mmHg 88%
    19:00 -2°C° 0 mm 2 m/s 757 mmHg 89%
    20:00 -2°C° 0 mm 2 m/s 757 mmHg 89%
    21:00 -2°C° 0 mm 2 m/s 757 mmHg 90%
    22:00 -2°C° 0 mm 2 m/s 758 mmHg 89%
    23:00 -2°C° 0 mm 2 m/s 758 mmHg 89%

    20 Noiembrie, Marţi

    Timp Temperatura Precipitaţii Vânt Presiune Umiditate
    00:00 -2°C° 0 mm 2 m/s 758 mmHg 89%
    01:00 -2°C° 0 mm 2 m/s 758 mmHg 87%
    02:00 -2°C° 0 mm 2 m/s 758 mmHg 86%
    03:00 -2°C° 0 mm 3 m/s 758 mmHg 85%
    04:00 -2°C° 0 mm 3 m/s 758 mmHg 82%
    05:00 -2°C° 0 mm 3 m/s 758 mmHg 80%
    06:00 -2°C° 0 mm 3 m/s 758 mmHg 78%
    07:00 -2°C° 0 mm 3 m/s 758 mmHg 75%
    08:00 -2°C° 0 mm 3 m/s 759 mmHg 72%
    09:00 -4°C° 0 mm 3 m/s 759 mmHg 69%
    10:00 -2°C° 0 mm 3 m/s 759 mmHg 66%
    11:00 -1°C° 0 mm 3 m/s 759 mmHg 63%
    12:00 -1°C° 0 mm 3 m/s 758 mmHg 60%
    13:00 -1°C° 0 mm 3 m/s 758 mmHg 61%
    14:00 -1°C° 0 mm 3 m/s 758 mmHg 61%
    15:00 -1°C° 0 mm 3 m/s 758 mmHg 62%
    16:00 -1°C° 0 mm 3 m/s 758 mmHg 65%
    17:00 -2°C° 0 mm 3 m/s 758 mmHg 67%
    18:00 -3°C° 0 mm 2 m/s 758 mmHg 69%
    19:00 -3°C° 0 mm 2 m/s 757 mmHg 69%
    20:00 -3°C° 0 mm 2 m/s 757 mmHg 69%
    21:00 -3°C° 0 mm 2 m/s 757 mmHg 68%
    22:00 -3°C° 0 mm 2 m/s 757 mmHg 70%
    23:00 -3°C° 0 mm 2 m/s 757 mmHg 71%
    Arată mai mult